contact:dominique.lefevre@mio.osupytheas.fr, maurice.libes@osupytheas.fr, didier.mallarino@osupytheas.fr
Project:EMSO http://www.emso-fr.org/EMSO-France
Depth: 2436.0 m
Title:EMSO Ligure Ouest : Data MII capteur AQUADOPP
Date,Latitude,Longitude,X_East,Y_North,Z_Up,Amplitude_X,Amplitude_Y,Amplitude_Z,Batterie,SoundSpeed,Heading,Pitch,Roll,Pressure,TIS,Speed,Direction
, degrees North, degrees East, m.s-1, m.s-1,m.s-1, 1, 1, 1, Volt, m.s-1, degree, degree, degree, dbar, degree_C, m.s-1, degree
2020-08-03T00:04:03,42.805,6.029,-0.012,-0.011,0.004,103.0,105.0,101.0,13.4,1505.3,326.6,-0.8,1.8,2470.37,13.31,0.016,227.5
2020-08-03T00:07:03,42.805,6.029,-0.035,-0.027,0.007,104.0,105.0,101.0,13.4,1505.3,322.9,-0.7,1.8,2470.32,13.31,0.044,232.3
2020-08-03T00:10:03,42.805,6.029,-0.028,-0.008,-0.035,103.0,105.0,101.0,13.4,1505.3,328.0,-0.7,1.9,2470.384,13.32,0.029,254.1
2020-08-03T00:13:03,42.805,6.029,-0.018,-0.031,0.019,105.0,105.0,101.0,13.3,1505.3,326.3,-0.8,1.9,2470.347,13.32,0.035,210.1
2020-08-03T00:16:03,42.805,6.029,-0.013,-0.035,-0.01,104.0,106.0,101.0,13.4,1505.3,327.9,-0.7,1.9,2470.335,13.32,0.037,200.4
2020-08-03T00:19:03,42.805,6.029,-0.023,-0.042,-0.014,105.0,105.0,100.0,13.3,1505.3,327.0,-0.7,1.9,2470.351,13.32,0.047,208.7
2020-08-03T00:22:03,42.805,6.029,-0.029,-0.016,0.019,104.0,106.0,100.0,13.4,1505.3,328.1,-0.7,1.8,2470.356,13.32,0.033,241.1
2020-08-03T00:25:03,42.805,6.029,-0.031,-0.017,-0.028,104.0,105.0,101.0,13.3,1505.3,327.0,-0.8,1.8,2470.343,13.32,0.035,241.3
2020-08-03T00:28:03,42.805,6.029,-0.026,-0.024,-0.002,104.0,105.0,99.0,13.4,1505.3,328.2,-0.7,1.8,2470.338,13.32,0.035,227.3
2020-08-03T00:31:03,42.805,6.029,-0.043,-0.019,-0.039,103.0,104.0,101.0,13.4,1505.3,323.8,-0.7,1.8,2470.331,13.33,0.047,246.2
2020-08-03T00:34:03,42.805,6.029,-0.039,-0.018,0.004,103.0,104.0,100.0,13.4,1505.3,324.6,-0.7,1.8,2470.36,13.32,0.042,245.2
2020-08-03T00:37:03,42.805,6.029,-0.054,-0.016,-0.03,104.0,106.0,99.0,13.4,1505.3,327.6,-0.7,1.8,2470.241,13.33,0.056,253.5
2020-08-03T00:40:03,42.805,6.029,-0.028,-0.031,-0.007,104.0,105.0,101.0,13.4,1505.3,326.6,-0.7,1.8,2470.277,13.33,0.041,222.1
2020-08-03T00:43:03,42.805,6.029,-0.054,-0.025,-0.048,104.0,105.0,101.0,13.4,1505.3,326.0,-0.7,1.8,2470.326,13.33,0.059,245.2
2020-08-03T00:46:03,42.805,6.029,-0.018,-0.02,-0.025,101.0,105.0,102.0,13.4,1505.3,323.1,-0.7,1.8,2470.28,13.33,0.026,222.0
2020-08-03T00:49:03,42.805,6.029,-0.045,-0.021,-0.005,103.0,104.0,100.0,13.4,1505.3,326.6,-0.7,1.9,2470.305,13.33,0.049,245.0
2020-08-03T00:52:03,42.805,6.029,-0.026,-0.016,0.004,102.0,107.0,101.0,13.4,1505.3,325.5,-0.7,1.8,2470.293,13.33,0.03,238.4
2020-08-03T00:55:03,42.805,6.029,-0.01,-0.035,-0.018,104.0,105.0,100.0,13.4,1505.3,323.8,-0.7,1.8,2470.297,13.33,0.036,195.9
2020-08-03T00:58:03,42.805,6.029,-0.03,-0.03,-0.012,102.0,103.0,102.0,13.4,1505.3,323.3,-0.7,1.8,2470.27,13.33,0.042,225.0
2020-08-03T01:04:03,42.805,6.029,-0.018,-0.04,-0.016,104.0,106.0,102.0,13.4,1505.3,324.8,-0.7,1.8,2470.378,13.31,0.043,204.2
2020-08-03T01:07:03,42.805,6.029,-0.048,-0.018,-0.02,103.0,105.0,102.0,13.3,1505.3,328.2,-0.7,1.9,2470.315,13.31,0.051,249.4
2020-08-03T01:10:03,42.805,6.029,-0.009,-0.019,-0.001,104.0,105.0,100.0,13.3,1505.3,328.0,-0.7,1.8,2470.316,13.32,0.021,205.3
2020-08-03T01:13:03,42.805,6.029,-0.042,-0.016,-0.03,104.0,105.0,100.0,13.4,1505.3,323.8,-0.7,1.8,2470.324,13.32,0.044,249.1
2020-08-03T01:16:03,42.805,6.029,-0.021,-0.028,-0.007,104.0,104.0,101.0,13.4,1505.3,324.5,-0.7,1.8,2470.309,13.32,0.035,216.9
2020-08-03T01:19:03,42.805,6.029,-0.043,-0.008,-0.012,103.0,105.0,100.0,13.3,1505.3,327.0,-0.7,1.8,2470.29,13.32,0.043,259.5
2020-08-03T01:22:03,42.805,6.029,-0.017,-0.014,-0.029,102.0,106.0,100.0,13.4,1505.3,328.0,-0.7,1.8,2470.261,13.32,0.022,230.5
2020-08-03T01:25:03,42.805,6.029,-0.031,-0.025,-0.009,103.0,106.0,101.0,13.4,1505.3,324.1,-0.7,1.8,2470.288,13.33,0.039,231.1
2020-08-03T01:28:03,42.805,6.029,-0.025,-0.038,0.005,103.0,104.0,101.0,13.4,1505.3,326.1,-0.7,1.8,2470.275,13.33,0.045,213.3
2020-08-03T01:31:03,42.805,6.029,-0.019,-0.015,0.0,103.0,105.0,100.0,13.3,1505.3,323.3,-0.7,1.8,2470.307,13.33,0.024,231.7
2020-08-03T01:34:03,42.805,6.029,-0.035,-0.006,-0.011,102.0,104.0,101.0,13.4,1505.3,326.5,-0.7,1.8,2470.287,13.33,0.035,260.3
2020-08-03T01:37:03,42.805,6.029,-0.047,-0.023,-0.026,103.0,104.0,100.0,13.4,1505.3,327.7,-0.7,1.8,2470.318,13.32,0.052,243.9
2020-08-03T01:40:03,42.805,6.029,-0.051,-0.037,-0.036,104.0,105.0,100.0,13.3,1505.3,324.4,-0.7,1.8,2470.294,13.32,0.063,234.0
2020-08-03T01:43:03,42.805,6.029,-0.037,-0.053,-0.022,105.0,104.0,101.0,13.4,1505.3,322.8,-0.7,1.8,2470.303,13.32,0.064,214.9
2020-08-03T01:46:03,42.805,6.029,-0.031,-0.038,-0.026,103.0,105.0,100.0,13.3,1505.3,325.3,-0.7,1.8,2470.275,13.32,0.049,219.2
2020-08-03T01:49:03,42.805,6.029,-0.04,-0.024,0.013,103.0,105.0,101.0,13.4,1505.3,327.6,-0.7,1.8,2470.258,13.32,0.046,239.0
2020-08-03T01:52:03,42.805,6.029,-0.038,-0.022,-0.002,104.0,105.0,101.0,13.4,1505.3,325.7,-0.7,1.8,2470.304,13.32,0.043,239.9
2020-08-03T01:55:03,42.805,6.029,-0.058,-0.017,-0.004,103.0,106.0,100.0,13.4,1505.3,327.9,-0.7,1.8,2470.267,13.33,0.06,253.7
2020-08-03T01:58:03,42.805,6.029,-0.016,-0.011,0.0,105.0,104.0,101.0,13.3,1505.3,326.3,-0.7,1.8,2470.27,13.33,0.019,235.5
2020-08-03T02:01:03,42.805,6.029,-0.056,-0.009,-0.006,102.0,105.0,101.0,13.4,1505.3,322.8,-0.7,1.8,2470.297,13.33,0.056,260.9
2020-08-03T02:04:03,42.805,6.029,-0.027,-0.013,-0.005,103.0,104.0,101.0,13.3,1505.3,327.8,-0.7,1.8,2470.277,13.33,0.029,244.3
2020-08-03T02:07:03,42.805,6.029,-0.023,-0.02,0.0,102.0,105.0,101.0,13.4,1505.3,322.5,-0.7,1.8,2470.298,13.33,0.03,229.0
2020-08-03T02:10:03,42.805,6.029,-0.039,-0.031,0.001,103.0,104.0,100.0,13.4,1505.3,325.4,-0.7,1.8,2470.31,13.32,0.049,231.5
2020-08-03T02:13:03,42.805,6.029,-0.042,-0.034,-0.024,103.0,104.0,100.0,13.3,1505.3,326.9,-0.7,1.9,2470.26,13.32,0.054,231.0
2020-08-03T02:16:03,42.805,6.029,-0.012,-0.025,-0.018,103.0,103.0,101.0,13.4,1505.3,326.0,-0.7,1.9,2470.261,13.32,0.027,205.6
2020-08-03T02:19:03,42.805,6.029,-0.044,-0.027,-0.013,104.0,104.0,102.0,13.4,1505.3,328.1,-0.7,1.8,2470.269,13.32,0.051,238.5
2020-08-03T02:22:03,42.805,6.029,-0.032,-0.039,-0.05,103.0,105.0,101.0,13.4,1505.3,323.8,-0.7,1.8,2470.288,13.32,0.05,219.4
2020-08-03T02:25:03,42.805,6.029,-0.011,-0.019,-0.04,103.0,105.0,100.0,13.3,1505.3,324.7,-0.7,1.9,2470.277,13.32,0.021,210.1
2020-08-03T02:28:03,42.805,6.029,-0.027,-0.017,-0.016,104.0,104.0,100.0,13.3,1505.3,327.6,-0.7,1.8,2470.28,13.33,0.031,237.8
2020-08-03T02:31:03,42.805,6.029,-0.027,-0.014,0.001,104.0,104.0,101.0,13.4,1505.3,326.6,-0.7,1.8,2470.263,13.32,0.03,242.6
2020-08-03T02:34:03,42.805,6.029,-0.034,-0.025,-0.005,104.0,104.0,101.0,13.4,1505.3,327.1,-0.7,1.8,2470.273,13.32,0.042,233.7
2020-08-03T02:37:03,42.805,6.029,-0.022,-0.035,-0.017,103.0,106.0,101.0,13.4,1505.3,324.2,-0.7,1.8,2470.309,13.33,0.041,212.2
2020-08-03T02:40:03,42.805,6.029,-0.029,-0.023,-0.016,103.0,105.0,101.0,13.4,1505.3,325.2,-0.7,1.8,2470.285,13.33,0.037,231.6
2020-08-03T02:43:03,42.805,6.029,-0.017,-0.03,-0.022,104.0,105.0,101.0,13.4,1505.3,324.7,-0.7,1.8,2470.33,13.33,0.034,209.5
2020-08-03T02:46:03,42.805,6.029,-0.023,-0.038,-0.03,103.0,106.0,101.0,13.4,1505.3,327.6,-0.7,1.8,2470.345,13.33,0.044,211.2
2020-08-03T02:49:03,42.805,6.029,-0.056,-0.025,-0.023,104.0,104.0,101.0,13.4,1505.3,325.8,-0.7,1.9,2470.304,13.33,0.061,245.9
2020-08-03T02:52:03,42.805,6.029,-0.072,-0.042,-0.068,104.0,105.0,101.0,13.4,1505.3,323.4,-0.7,1.8,2470.329,13.33,0.083,239.7
2020-08-03T02:55:03,42.805,6.029,-0.045,-0.041,-0.017,104.0,106.0,101.0,13.4,1505.3,324.5,-0.7,1.8,2470.301,13.32,0.06,227.7
2020-08-03T02:58:03,42.805,6.029,-0.027,-0.024,-0.015,105.0,105.0,101.0,13.3,1505.3,327.8,-0.7,1.8,2470.284,13.33,0.036,228.4
2020-08-03T03:04:03,42.805,6.029,-0.039,-0.02,0.002,104.0,105.0,102.0,13.4,1505.3,324.8,-0.7,1.8,2470.329,13.31,0.043,242.9
2020-08-03T03:07:03,42.805,6.029,-0.041,-0.01,-0.011,104.0,104.0,101.0,13.4,1505.3,326.3,-0.7,1.8,2470.345,13.31,0.042,256.3
2020-08-03T03:10:03,42.805,6.029,-0.036,-0.036,-0.035,103.0,104.0,101.0,13.3,1505.3,325.4,-0.7,1.8,2470.317,13.32,0.05,225.0
2020-08-03T03:13:03,42.805,6.029,-0.039,-0.032,-0.003,103.0,104.0,100.0,13.4,1505.3,323.4,-0.7,1.8,2470.351,13.32,0.05,230.6
2020-08-03T03:16:03,42.805,6.029,-0.006,-0.03,0.022,104.0,104.0,100.0,13.4,1505.3,326.0,-0.7,1.9,2470.366,13.32,0.03,191.3
2020-08-03T03:19:03,42.805,6.029,-0.049,-0.032,0.017,104.0,104.0,100.0,13.4,1505.3,327.0,-0.7,1.8,2470.282,13.32,0.058,236.8
2020-08-03T03:22:03,42.805,6.029,-0.032,-0.026,-0.011,104.0,105.0,100.0,13.4,1505.3,326.4,-0.7,1.8,2470.331,13.32,0.041,230.9
2020-08-03T03:25:03,42.805,6.029,-0.029,-0.025,0.016,104.0,103.0,102.0,13.3,1505.3,326.9,-0.7,1.8,2470.299,13.32,0.038,229.2
2020-08-03T03:28:03,42.805,6.029,-0.078,-0.04,-0.032,106.0,103.0,102.0,13.4,1505.3,325.8,-0.7,1.8,2470.296,13.32,0.087,242.9
2020-08-03T03:31:03,42.805,6.029,-0.036,-0.031,-0.014,103.0,104.0,101.0,13.4,1505.3,326.6,-0.7,1.8,2470.338,13.32,0.047,229.3
2020-08-03T03:34:03,42.805,6.029,-0.042,-0.035,0.002,104.0,106.0,101.0,13.4,1505.3,325.9,-0.7,1.8,2470.314,13.32,0.054,230.2
2020-08-03T03:37:03,42.805,6.029,-0.028,-0.027,0.006,103.0,106.0,100.0,13.3,1505.3,324.5,-0.7,1.8,2470.287,13.32,0.038,226.0
2020-08-03T03:40:03,42.805,6.029,-0.039,-0.017,-0.001,104.0,103.0,100.0,13.4,1505.3,324.3,-0.7,1.8,2470.337,13.32,0.042,246.5
2020-08-03T03:43:03,42.805,6.029,-0.038,-0.015,-0.014,103.0,104.0,101.0,13.4,1505.3,324.0,-0.7,1.8,2470.336,13.32,0.04,248.5
2020-08-03T03:46:03,42.805,6.029,-0.035,-0.013,-0.009,103.0,104.0,101.0,13.3,1505.3,323.8,-0.7,1.8,2470.306,13.33,0.037,249.6
2020-08-03T03:49:03,42.805,6.029,-0.056,-0.02,-0.014,104.0,104.0,100.0,13.4,1505.3,323.5,-0.7,1.8,2470.324,13.33,0.059,250.4
2020-08-03T03:52:03,42.805,6.029,-0.046,-0.024,-0.058,103.0,106.0,100.0,13.4,1505.3,324.0,-0.7,1.8,2470.343,13.33,0.051,242.4
2020-08-03T03:55:03,42.805,6.029,-0.02,-0.033,-0.01,103.0,105.0,100.0,13.4,1505.3,325.7,-0.7,1.8,2470.326,13.33,0.038,211.2
2020-08-03T03:58:03,42.805,6.029,-0.04,-0.028,0.015,103.0,103.0,101.0,13.4,1505.3,323.8,-0.7,1.8,2470.335,13.32,0.048,235.0
2020-08-03T04:04:03,42.805,6.029,-0.041,-0.021,0.015,103.0,104.0,101.0,13.4,1505.2,325.5,-0.7,1.9,2470.358,13.3,0.046,242.9
2020-08-03T04:07:03,42.805,6.029,-0.01,-0.027,0.013,103.0,105.0,100.0,13.3,1505.3,324.6,-0.7,1.8,2470.35,13.31,0.028,200.3
2020-08-03T04:10:03,42.805,6.029,-0.041,-0.036,-0.02,103.0,105.0,100.0,13.3,1505.3,325.1,-0.7,1.8,2470.374,13.32,0.054,228.7
2020-08-03T04:13:03,42.805,6.029,-0.036,-0.022,-0.001,104.0,105.0,101.0,13.4,1505.3,328.0,-0.7,1.9,2470.346,13.32,0.042,238.6
2020-08-03T04:16:03,42.805,6.029,-0.036,-0.009,0.001,104.0,105.0,102.0,13.4,1505.3,324.5,-0.7,1.8,2470.326,13.32,0.037,256.0
2020-08-03T04:19:03,42.805,6.029,-0.034,-0.025,0.0,104.0,105.0,101.0,13.4,1505.3,328.1,-0.7,1.8,2470.375,13.32,0.042,233.7
2020-08-03T04:22:03,42.805,6.029,-0.005,-0.036,0.008,103.0,104.0,101.0,13.4,1505.3,323.8,-0.7,1.8,2470.344,13.32,0.036,187.9
2020-08-03T04:25:03,42.805,6.029,-0.02,-0.011,-0.013,104.0,104.0,101.0,13.4,1505.3,324.3,-0.7,1.8,2470.377,13.32,0.022,241.2
2020-08-03T04:28:03,42.805,6.029,-0.064,-0.014,0.0,103.0,106.0,101.0,13.4,1505.3,326.3,-0.7,1.8,2470.378,13.32,0.065,257.7
2020-08-03T04:31:03,42.805,6.029,-0.038,-0.024,0.021,103.0,104.0,101.0,13.3,1505.3,325.9,-0.7,1.8,2470.344,13.32,0.044,237.7
2020-08-03T04:34:03,42.805,6.029,-0.041,-0.017,0.006,104.0,105.0,101.0,13.3,1505.3,328.4,-0.7,1.8,2470.339,13.32,0.044,247.5
2020-08-03T04:37:03,42.805,6.029,-0.04,-0.023,-0.013,103.0,104.0,101.0,13.4,1505.3,327.9,-0.7,1.9,2470.357,13.32,0.046,240.1
2020-08-03T04:40:03,42.805,6.029,-0.021,-0.024,-0.02,103.0,104.0,101.0,13.4,1505.3,325.3,-0.7,1.8,2470.319,13.32,0.031,221.2
2020-08-03T04:43:03,42.805,6.029,-0.035,0.003,0.007,103.0,104.0,101.0,13.3,1505.3,328.4,-0.7,1.8,2470.348,13.32,0.035,274.9
2020-08-03T04:46:03,42.805,6.029,-0.04,-0.013,0.009,103.0,105.0,101.0,13.4,1505.3,323.4,-0.7,1.8,2470.342,13.33,0.042,252.0
2020-08-03T04:49:03,42.805,6.029,-0.052,-0.008,-0.02,103.0,105.0,100.0,13.4,1505.3,324.8,-0.7,1.8,2470.351,13.33,0.052,261.3
2020-08-03T04:52:03,42.805,6.029,-0.045,-0.028,-0.027,103.0,105.0,101.0,13.4,1505.3,327.6,-0.7,1.8,2470.335,13.32,0.053,238.1
2020-08-03T04:55:03,42.805,6.029,-0.067,0.002,-0.021,103.0,104.0,101.0,13.4,1505.3,324.6,-0.7,1.8,2470.364,13.32,0.067,271.7
2020-08-03T04:58:03,42.805,6.029,-0.029,-0.03,-0.013,104.0,105.0,101.0,13.4,1505.3,324.7,-0.7,1.9,2470.322,13.32,0.041,224.0
2020-08-03T05:04:03,42.805,6.029,-0.029,-0.051,-0.01,104.0,106.0,101.0,13.4,1505.3,323.0,-0.7,1.8,2470.406,13.31,0.058,209.6
2020-08-03T05:07:03,42.805,6.029,-0.013,-0.007,0.031,103.0,105.0,101.0,13.4,1505.3,323.1,-0.7,1.8,2470.384,13.31,0.014,241.7
2020-08-03T05:10:03,42.805,6.029,-0.031,-0.032,-0.002,103.0,106.0,100.0,13.3,1505.3,323.8,-0.7,1.8,2470.37,13.32,0.044,224.1
2020-08-03T05:13:03,42.805,6.029,-0.041,-0.031,-0.014,102.0,104.0,100.0,13.4,1505.3,323.4,-0.7,1.8,2470.387,13.32,0.051,232.9
2020-08-03T05:16:03,42.805,6.029,-0.029,0.005,0.005,103.0,104.0,100.0,13.4,1505.3,325.7,-0.7,1.8,2470.379,13.32,0.029,279.8
2020-08-03T05:19:03,42.805,6.029,-0.053,-0.014,-0.019,104.0,105.0,101.0,13.3,1505.3,328.5,-0.7,1.8,2470.396,13.32,0.054,255.2
2020-08-03T05:22:03,42.805,6.029,-0.029,-0.008,-0.001,104.0,105.0,101.0,13.4,1505.3,326.7,-0.7,1.8,2470.356,13.32,0.03,254.6
2020-08-03T05:25:03,42.805,6.029,-0.039,-0.012,-0.022,103.0,104.0,101.0,13.3,1505.3,326.7,-0.7,1.8,2470.402,13.32,0.04,252.9
2020-08-03T05:28:03,42.805,6.029,-0.043,-0.017,0.01,103.0,105.0,101.0,13.4,1505.3,326.6,-0.7,1.9,2470.387,13.32,0.046,248.4
2020-08-03T05:31:03,42.805,6.029,-0.033,-0.014,-0.018,103.0,103.0,101.0,13.3,1505.3,324.9,-0.7,1.8,2470.372,13.32,0.035,247.0
2020-08-03T05:34:03,42.805,6.029,-0.024,-0.026,-0.011,104.0,104.0,100.0,13.4,1505.3,328.1,-0.7,1.8,2470.365,13.32,0.035,222.7
2020-08-03T05:37:03,42.805,6.029,-0.037,-0.018,-0.006,102.0,105.0,101.0,13.3,1505.3,323.7,-0.7,1.8,2470.378,13.32,0.041,244.1
2020-08-03T05:40:03,42.805,6.029,-0.046,-0.017,-0.017,103.0,104.0,100.0,13.4,1505.3,325.5,-0.7,1.8,2470.39,13.32,0.049,249.7
2020-08-03T05:43:03,42.805,6.029,-0.033,-0.002,-0.018,104.0,104.0,101.0,13.3,1505.3,327.7,-0.7,1.8,2470.392,13.32,0.033,266.5
2020-08-03T05:46:03,42.805,6.029,-0.042,-0.016,-0.02,102.0,104.0,100.0,13.3,1505.3,322.8,-0.7,1.8,2470.396,13.32,0.044,249.1
2020-08-03T05:49:03,42.805,6.029,-0.044,-0.039,-0.002,104.0,105.0,101.0,13.4,1505.3,323.6,-0.7,1.8,2470.37,13.32,0.058,228.4
2020-08-03T05:52:03,42.805,6.029,-0.038,-0.023,-0.018,105.0,106.0,100.0,13.4,1505.3,324.5,-0.7,1.8,2470.344,13.32,0.044,238.8
2020-08-03T05:55:03,42.805,6.029,-0.018,-0.018,0.02,104.0,105.0,101.0,13.3,1505.3,323.4,-0.7,1.8,2470.382,13.33,0.025,225.0
2020-08-03T05:58:03,42.805,6.029,-0.059,-0.008,-0.003,103.0,104.0,100.0,13.4,1505.3,327.8,-0.7,1.8,2470.411,13.33,0.059,262.3
2020-08-03T06:04:03,42.805,6.029,-0.045,-0.026,-0.057,103.0,105.0,101.0,13.4,1505.2,324.2,-0.7,1.8,2470.421,13.3,0.051,240.0
2020-08-03T06:07:03,42.805,6.029,-0.023,-0.009,0.0,103.0,105.0,100.0,13.4,1505.3,325.5,-0.7,1.8,2470.414,13.31,0.024,248.6
2020-08-03T06:10:03,42.805,6.029,-0.024,-0.005,0.012,103.0,105.0,102.0,13.4,1505.3,325.7,-0.7,1.8,2470.443,13.32,0.024,258.2
2020-08-03T06:13:03,42.805,6.029,-0.03,-0.01,0.006,104.0,105.0,102.0,13.4,1505.3,323.8,-0.7,1.8,2470.43,13.32,0.031,251.6
2020-08-03T06:16:03,42.805,6.029,-0.049,-0.024,0.001,103.0,104.0,101.0,13.4,1505.3,323.5,-0.7,1.8,2470.413,13.32,0.054,243.9
2020-08-03T06:19:03,42.805,6.029,-0.055,-0.027,0.001,102.0,106.0,102.0,13.4,1505.3,327.8,-0.7,1.8,2470.457,13.32,0.061,243.9
2020-08-03T06:22:03,42.805,6.029,-0.022,-0.026,-0.013,104.0,105.0,100.0,13.4,1505.3,326.5,-0.7,1.8,2470.39,13.32,0.034,220.2
2020-08-03T06:25:03,42.805,6.029,-0.024,-0.013,0.027,104.0,103.0,101.0,13.4,1505.3,326.4,-0.7,1.9,2470.401,13.32,0.027,241.6
2020-08-03T06:28:03,42.805,6.029,-0.033,-0.026,-0.003,103.0,105.0,101.0,13.4,1505.3,326.7,-0.7,1.8,2470.423,13.33,0.042,231.8
2020-08-03T06:31:03,42.805,6.029,-0.041,0.001,-0.02,105.0,104.0,102.0,13.4,1505.3,325.0,-0.7,1.8,2470.402,13.33,0.041,271.4
2020-08-03T06:34:03,42.805,6.029,-0.02,0.0,-0.006,104.0,105.0,101.0,13.3,1505.3,327.4,-0.7,1.8,2470.368,13.33,0.02,270.0
2020-08-03T06:37:03,42.805,6.029,-0.025,-0.01,0.003,104.0,106.0,102.0,13.3,1505.3,327.0,-0.7,1.8,2470.408,13.33,0.026,248.2
2020-08-03T06:40:03,42.805,6.029,-0.044,-0.021,-0.012,105.0,107.0,101.0,13.3,1505.3,323.9,-0.7,1.8,2470.445,13.33,0.048,244.5
2020-08-03T06:43:03,42.805,6.029,-0.049,0.0,-0.013,104.0,105.0,102.0,13.4,1505.3,325.3,-0.7,1.8,2470.419,13.33,0.049,270.0
2020-08-03T06:46:03,42.805,6.029,-0.048,-0.025,0.003,104.0,105.0,100.0,13.3,1505.3,328.1,-0.7,1.8,2470.436,13.33,0.054,242.5
2020-08-03T06:49:03,42.805,6.029,-0.035,0.0,-0.002,104.0,105.0,101.0,13.4,1505.3,326.7,-0.7,1.8,2470.419,13.33,0.035,270.0
2020-08-03T06:52:03,42.805,6.029,-0.027,-0.015,-0.019,104.0,105.0,102.0,13.3,1505.3,326.8,-0.7,1.8,2470.401,13.33,0.03,240.9
2020-08-03T06:55:03,42.805,6.029,-0.061,-0.033,-0.037,103.0,105.0,102.0,13.3,1505.3,326.4,-0.7,1.8,2470.388,13.33,0.069,241.6
2020-08-03T06:58:03,42.805,6.029,-0.041,-0.016,-0.018,104.0,104.0,101.0,13.4,1505.3,327.6,-0.7,1.8,2470.379,13.33,0.044,248.7
2020-08-03T07:04:03,42.805,6.029,-0.024,0.004,-0.006,102.0,106.0,102.0,13.4,1505.3,328.2,-0.8,1.8,2470.441,13.31,0.024,279.5
2020-08-03T07:07:03,42.805,6.029,-0.043,-0.013,-0.006,103.0,107.0,101.0,13.3,1505.3,324.8,-0.7,1.8,2470.474,13.31,0.044,253.2
2020-08-03T07:10:03,42.805,6.029,-0.056,-0.008,-0.019,103.0,105.0,101.0,13.4,1505.3,328.4,-0.7,1.8,2470.453,13.32,0.056,261.9
2020-08-03T07:13:03,42.805,6.029,-0.042,0.0,-0.018,104.0,106.0,100.0,13.4,1505.3,325.8,-0.7,1.8,2470.484,13.32,0.042,270.0
2020-08-03T07:16:03,42.805,6.029,-0.066,-0.017,-0.05,103.0,105.0,101.0,13.3,1505.3,326.3,-0.7,1.8,2470.453,13.32,0.068,255.6
2020-08-03T07:19:03,42.805,6.029,-0.045,-0.023,0.005,104.0,105.0,101.0,13.3,1505.3,326.4,-0.7,1.9,2470.422,13.32,0.05,242.9
2020-08-03T07:22:03,42.805,6.029,-0.021,-0.008,-0.025,104.0,105.0,101.0,13.4,1505.3,328.1,-0.7,1.9,2470.401,13.32,0.022,249.1
2020-08-03T07:25:03,42.805,6.029,-0.012,0.001,0.036,104.0,105.0,100.0,13.4,1505.3,327.5,-0.7,1.8,2470.451,13.32,0.012,274.8
2020-08-03T07:28:03,42.805,6.029,-0.01,-0.017,0.011,104.0,105.0,102.0,13.4,1505.3,324.1,-0.7,1.8,2470.406,13.33,0.019,210.5
2020-08-03T07:31:03,42.805,6.029,-0.057,-0.017,-0.034,103.0,106.0,102.0,13.4,1505.3,325.6,-0.7,1.8,2470.453,13.33,0.059,253.4
2020-08-03T07:34:03,42.805,6.029,-0.057,-0.01,-0.036,102.0,104.0,100.0,13.3,1505.3,326.6,-0.7,1.8,2470.421,13.33,0.057,260.1
2020-08-03T07:37:03,42.805,6.029,-0.032,-0.007,0.0,101.0,105.0,101.0,13.4,1505.3,326.6,-0.7,1.8,2470.409,13.33,0.032,257.7
2020-08-03T07:40:03,42.805,6.029,-0.032,0.002,0.041,103.0,105.0,100.0,13.4,1505.3,326.2,-0.7,1.8,2470.413,13.33,0.032,273.6
2020-08-03T07:43:03,42.805,6.029,-0.061,-0.01,-0.01,102.0,105.0,100.0,13.4,1505.3,327.4,-0.7,1.8,2470.428,13.33,0.061,260.7
2020-08-03T07:46:03,42.805,6.029,-0.04,-0.022,-0.023,102.0,106.0,101.0,13.3,1505.3,325.5,-0.7,1.8,2470.411,13.33,0.045,241.2
2020-08-03T07:49:03,42.805,6.029,-0.038,-0.014,-0.017,103.0,104.0,100.0,13.3,1505.3,323.8,-0.7,1.8,2470.402,13.33,0.04,249.8
2020-08-03T07:52:03,42.805,6.029,-0.039,-0.013,-0.021,103.0,105.0,101.0,13.4,1505.3,326.1,-0.7,1.8,2470.367,13.33,0.041,251.6
2020-08-03T07:55:03,42.805,6.029,-0.028,-0.02,-0.021,102.0,105.0,100.0,13.3,1505.3,326.3,-0.7,1.8,2470.377,13.33,0.034,234.5
2020-08-03T07:58:03,42.805,6.029,-0.042,-0.019,-0.05,102.0,103.0,100.0,13.4,1505.3,324.6,-0.7,1.9,2470.383,13.33,0.046,245.7
2020-08-03T08:04:03,42.805,6.029,-0.046,-0.031,-0.031,102.0,104.0,100.0,13.3,1505.3,324.4,-0.7,1.8,2470.453,13.31,0.055,236.0
2020-08-03T08:07:03,42.805,6.029,-0.012,-0.019,0.006,102.0,105.0,100.0,13.4,1505.3,322.7,-0.7,1.8,2470.415,13.31,0.022,212.3
2020-08-03T08:10:03,42.805,6.029,-0.045,-0.009,0.004,103.0,105.0,99.0,13.4,1505.3,325.9,-0.7,1.9,2470.446,13.32,0.045,258.7
2020-08-03T08:13:03,42.805,6.029,-0.025,-0.015,-0.026,102.0,105.0,100.0,13.3,1505.3,324.9,-0.7,1.9,2470.425,13.32,0.029,239.0
2020-08-03T08:16:03,42.805,6.029,-0.031,-0.001,-0.011,102.0,106.0,100.0,13.4,1505.3,327.0,-0.7,1.9,2470.434,13.32,0.031,268.2
2020-08-03T08:19:03,42.805,6.029,-0.064,0.0,-0.009,102.0,104.0,102.0,13.4,1505.3,327.1,-0.7,1.8,2470.422,13.32,0.063,270.0
2020-08-03T08:22:03,42.805,6.029,-0.065,-0.024,-0.022,102.0,103.0,101.0,13.4,1505.3,327.7,-0.7,1.8,2470.4,13.32,0.069,249.7
2020-08-03T08:25:03,42.805,6.029,-0.02,-0.012,-0.035,102.0,105.0,101.0,13.4,1505.3,324.8,-0.7,1.8,2470.4,13.32,0.023,239.0
2020-08-03T08:28:03,42.805,6.029,-0.045,-0.009,-0.019,103.0,104.0,101.0,13.4,1505.3,325.3,-0.7,1.8,2470.363,13.32,0.045,258.7
2020-08-03T08:31:03,42.805,6.029,-0.025,-0.019,0.007,103.0,104.0,101.0,13.4,1505.3,328.0,-0.7,1.8,2470.347,13.32,0.031,232.8
2020-08-03T08:34:03,42.805,6.029,-0.034,-0.012,0.017,103.0,106.0,100.0,13.4,1505.3,324.0,-0.7,1.8,2470.358,13.33,0.036,250.6
2020-08-03T08:37:03,42.805,6.029,-0.024,0.008,-0.011,102.0,105.0,100.0,13.3,1505.3,324.1,-0.7,1.8,2470.345,13.33,0.025,288.4
2020-08-03T08:40:03,42.805,6.029,-0.019,-0.022,-0.008,103.0,104.0,101.0,13.4,1505.3,327.2,-0.7,1.8,2470.377,13.33,0.029,220.8
2020-08-03T08:43:03,42.805,6.029,-0.04,-0.022,-0.021,103.0,104.0,100.0,13.4,1505.3,326.4,-0.7,1.8,2470.365,13.33,0.045,241.2
2020-08-03T08:46:03,42.805,6.029,-0.024,-0.03,-0.009,102.0,105.0,100.0,13.4,1505.3,326.4,-0.7,1.8,2470.384,13.33,0.038,218.7
2020-08-03T08:49:03,42.805,6.029,-0.046,-0.016,-0.023,103.0,104.0,101.0,13.4,1505.3,327.6,-0.7,1.8,2470.373,13.33,0.048,250.8
2020-08-03T08:52:03,42.805,6.029,-0.011,-0.027,0.008,102.0,105.0,100.0,13.4,1505.3,325.7,-0.7,1.8,2470.378,13.33,0.029,202.2
2020-08-03T08:55:03,42.805,6.029,-0.04,-0.015,-0.002,104.0,104.0,100.0,13.3,1505.3,323.9,-0.7,1.8,2470.356,13.32,0.042,249.4
2020-08-03T08:58:03,42.805,6.029,-0.024,-0.003,0.0,102.0,105.0,101.0,13.4,1505.3,325.4,-0.7,1.9,2470.349,13.32,0.024,262.9
2020-08-03T09:04:03,42.805,6.029,-0.014,-0.009,0.002,103.0,105.0,101.0,13.3,1505.2,326.3,-0.7,1.8,2470.398,13.3,0.016,237.3
2020-08-03T09:07:03,42.805,6.029,-0.048,-0.011,-0.008,104.0,105.0,100.0,13.4,1505.3,325.6,-0.7,1.8,2470.392,13.31,0.049,257.1
2020-08-03T09:10:03,42.805,6.029,-0.009,-0.019,0.001,104.0,104.0,100.0,13.3,1505.3,324.7,-0.7,1.8,2470.372,13.32,0.021,205.3
2020-08-03T09:13:03,42.805,6.029,-0.048,-0.009,-0.019,101.0,105.0,100.0,13.3,1505.3,325.0,-0.7,1.8,2470.399,13.32,0.048,259.4
2020-08-03T09:16:03,42.805,6.029,-0.039,-0.014,-0.026,102.0,106.0,101.0,13.3,1505.3,323.9,-0.7,1.8,2470.388,13.32,0.041,250.3
2020-08-03T09:19:03,42.805,6.029,-0.015,-0.031,-0.037,103.0,105.0,100.0,13.3,1505.3,327.1,-0.7,1.8,2470.407,13.32,0.034,205.8
2020-08-03T09:22:03,42.805,6.029,-0.031,0.0,-0.009,104.0,104.0,100.0,13.4,1505.3,326.3,-0.7,1.9,2470.348,13.33,0.03,270.0
2020-08-03T09:25:03,42.805,6.029,-0.046,-0.013,0.002,103.0,103.0,101.0,13.4,1505.3,327.4,-0.7,1.8,2470.326,13.33,0.047,254.2
2020-08-03T09:28:03,42.805,6.029,-0.034,-0.009,-0.002,103.0,104.0,100.0,13.4,1505.3,324.7,-0.7,1.8,2470.367,13.33,0.035,255.2
2020-08-03T09:31:03,42.805,6.029,-0.016,-0.013,-0.013,102.0,106.0,101.0,13.4,1505.3,324.3,-0.7,1.9,2470.412,13.33,0.02,230.9
2020-08-03T09:34:03,42.805,6.029,-0.043,-0.012,-0.005,103.0,105.0,101.0,13.3,1505.3,324.2,-0.7,1.9,2470.341,13.33,0.044,254.4
2020-08-03T09:37:03,42.805,6.029,-0.036,-0.016,-0.035,103.0,105.0,101.0,13.4,1505.3,325.7,-0.7,1.8,2470.345,13.33,0.039,246.0
2020-08-03T09:40:03,42.805,6.029,-0.016,-0.015,-0.033,101.0,105.0,100.0,13.4,1505.3,325.4,-0.7,1.8,2470.391,13.33,0.021,226.9
2020-08-03T09:43:03,42.805,6.029,-0.024,0.005,0.04,103.0,105.0,100.0,13.4,1505.3,324.7,-0.7,1.8,2470.341,13.33,0.024,281.8
2020-08-03T09:46:03,42.805,6.029,-0.047,-0.006,-0.006,103.0,105.0,101.0,13.4,1505.3,322.6,-0.7,1.8,2470.372,13.33,0.047,262.7
2020-08-03T09:49:03,42.805,6.029,-0.025,-0.001,-0.012,103.0,104.0,101.0,13.4,1505.3,325.7,-0.7,1.8,2470.381,13.33,0.025,267.7